Regional Weather Roundup
Issued by NWS

Home | Current Version | Previous Version | Text Only | Print | Product List | Glossary Off
Versions: 1 2 3 4 5 6 7 8 9 10 11 12 13 14 15 16 17 18 19 20 21 22 23 24 25 26 27 28

000
ASUS45 KCYS 161310
RWRWY

WYOMING REGIONAL WEATHER ROUNDUP
NATIONAL WEATHER SERVICE CHEYENNE WY
700 AM MDT WED APR 16 2014

NOTE:  "FAIR" INDICATES FEW OR NO CLOUDS BELOW 12,000 FEET
WITH NO SIGNIFICANT WEATHER AND/OR OBSTRUCTIONS TO VISIBILITY.

WYZ001-161400-
YELLOWSTONE NATIONAL PARK

CITY           SKY/WX    TMP DP  RH WIND       PRES   REMARKS
LK YELLOWSTONE   N/A     15  12  88 NW3       29.98R
W YELLOWSTONE  NOT AVBL

$$
WYZ002>013-054>058-071-098>099-161400-
NORTHERN WYOMING

CITY           SKY/WX    TMP DP  RH WIND       PRES   REMARKS
JACKSON        CLEAR     18  18 100 MISG      29.98R
CODY           PTCLDY    28  23  80 S5        29.92R WCI  23
GREYBULL       PTCLDY    37  30  75 NW21      29.92R WCI  26
WORLAND        CLOUDY    36  31  82 W6        29.94R WCI  31
SHERIDAN       CLOUDY    36  32  85 W14       29.91R WCI  27
BUFFALO        LGT SNOW  32  30  92 N14G23    29.90R VSB 1   WCI  22
GILLETTE       MOCLDY    34  30  85 NW17      29.86R WCI  23
HULETT         CLOUDY    36  32  87 NW9G17    29.84  WCI  29
NEWCASTLE      MIX PCPN  32  32 100 N16G25    29.82  WCI  21

$$
WYZ014>020-022>026-101>103-161400-
CENTRAL WYOMING

CITY           SKY/WX    TMP DP  RH WIND       PRES   REMARKS
BIG PINEY      PTCLDY    17  10  74 NW8       29.98R WCI   7
PINEDALE       SUNNY     18  12  79 NW8       29.97R WCI   7
DUBOIS         FAIR      25  14  63 W20       29.91S WCI  11
LANDER         PTCLDY    29  21  72 SW7       29.93R WCI  22
RIVERTON       CLOUDY    30  29  96 CALM      29.93R
CASPER         CLOUDY    30  26  85 CALM      29.90R
DOUGLAS        CLOUDY    35  31  85 NW16      29.88R WCI  25

$$
WYZ021-027>030-104>119-161400-
SOUTHERN WYOMING

CITY           SKY/WX    TMP DP  RH WIND       PRES   REMARKS
EVANSTON       CLOUDY    30  12  47 N9        29.99R WCI  22
FORT BRIDGER   FAIR      30  16  55 W12       30.00S WCI  20
ROCK SPRINGS   CLEAR     28  15  58 W12       29.96R WCI  18
DIXON          FAIR      26  23  89 CALM      29.98R
RAWLINS        PTCLDY    25  22  88 NW8       29.92R WCI  16
SARATOGA       FAIR      28  25  86 W7        29.93R WCI  21
LARAMIE        PTCLDY    25  21  85 W18       29.88  WCI  11
CHEYENNE       CLEAR     33  25  72 W10       29.84R WCI  25
TORRINGTON     PTCLDY    38  31  76 NW18      29.83R WCI  28
PINE BLUFFS    FAIR      32  30  93 NW10      29.84R WCI  24

$$



USA.gov is the U.S. government's official web portal to all federal, state and local government web resources and services.